Flag for USA

Past Weather in 34°25'14"N, 119°41'27"W, USA — Yesterday and Last 2 Weeks

Now
57 °F

Fog.


Feels Like: 57 °F
Forecast: 70 / 55 °F
Wind: 5 mph from South

Location: Santa Barbara Municipal Airport
Current Time: Aug 11, 2020 at 6:42:52 am
Latest Report: Aug 11, 2020 at 5:02 am
Visibility: 1 mi
Pressure29.92 "Hg
Humidity: 96%
Dew Point: 56 °F
Location of 34°25'14"N, 119°41'27"WLocation

Past Weather in 34°25'14"N, 119°41'27"W — Graph

°F

34°25'14"N, 119°41'27"W Temperature Yesterday

Maximum temperature yesterday: 67 °F (at 2:53 pm)
Minimum temperature yesterday: 54 °F (at 11:53 pm)
Average temperature yesterday: 59 °F

High & Low Weather Summary for the Past Weeks

 TemperatureHumidityPressure
High77 °F (Jul 31, 2:53 pm)100% (Jul 30, 3:39 am)30.01 "Hg (Jul 30, 3:39 am)
Low53 °F (Jul 31, 5:53 am)52% (Jul 31, 2:53 pm)29.83 "Hg (Jul 28, 6:53 pm)
Average62 °F82%29.92 "Hg
* Reported Jul 27 5:53 am — Aug 11 5:02 am, 34°25'14"N, 119°41'27"W. Weather by CustomWeather, © 2020

Note: Actual official high and low records may vary slightly from our data, if they occured in-between our weather recording intervals... More about our weather records

34°25'14"N, 119°41'27"W Weather History for the Previous 24 Hours

Scroll right to see more
 ConditionsComfort  
Time TempWeatherWind HumidityBarometerVisibility
5:02 am
Tue, Aug 11
57 °FFog.5 mph96%29.92 "Hg1 mi
4:35 am57 °FFog.No wind96%29.92 "Hg2 mi
3:53 am58 °FFog.No wind93%29.91 "Hg6 mi
3:09 am56 °FLow clouds.No wind87%29.91 "Hg10 mi
2:53 am55 °FLow clouds.No wind90%29.90 "Hg10 mi
2:06 am55 °FPassing clouds.No wind90%29.91 "Hg10 mi
1:53 am53 °FPassing clouds.No wind93%29.90 "Hg9 mi
12:53 am53 °FClear.3 mph93%29.91 "Hg10 mi
11:53 pm
Mon, Aug 10
54 °FClear.No wind90%29.91 "Hg10 mi
10:53 pm57 °FClear.No wind90%29.92 "Hg9 mi
9:53 pm58 °FClear.5 mph90%29.91 "Hg9 mi
8:53 pm59 °FClear.8 mph87%29.90 "Hg10 mi
7:53 pm60 °FClear.8 mph83%29.90 "Hg10 mi
6:53 pm62 °FSunny.14 mph78%29.90 "Hg10 mi
5:53 pm65 °FSunny.13 mph73%29.90 "Hg10 mi
4:53 pm66 °FSunny.10 mph70%29.91 "Hg10 mi
3:53 pm66 °FSunny.12 mph70%29.92 "Hg10 mi
2:53 pm67 °FSunny.10 mph68%29.94 "Hg10 mi
1:53 pm65 °FPassing clouds.12 mph73%29.94 "Hg10 mi
12:53 pm64 °FScattered clouds.8 mph75%29.96 "Hg10 mi
12:37 pm64 °FScattered clouds.8 mph75%29.96 "Hg10 mi
11:53 am62 °FFog.5 mph80%29.96 "Hg3 mi
10:53 am59 °FFog.5 mph90%29.99 "Hg3 mi
9:53 am58 °FLow clouds.5 mph93%29.98 "Hg10 mi
8:53 am56 °FFog.5 mph100%29.97 "Hg3 mi
7:53 am56 °FFog.5 mph97%29.96 "Hg1 mi
6:53 am55 °FFog.No wind100%29.95 "Hg1 mi
Weather by CustomWeather, © 2020

See weather overview